Wind_Speed
41 42 38 38 40 39 38 41 42 41 44 49 45 44 38 35 35 31 38 37 41 42 40 43 43 41 39 38 39 41 44 45 46 49 49 48 50 52 55 56 56 57 60 63
43 41 38 40 40 40 41 45 45 46 48 52 51 49 43 41 36 37 33 38 40 40 43 46 46 45 43 43 42 43 46 46 48 49 50 52 53 55 56 57 55 59 62 65
47 43 42 41 40 43 46 48 49 52 53 53 57 56 49 40 39 36 37 36 40 41 44 46 47 46 47 47 47 47 47 50 50 49 50 52 54 56 57 56 57 60 64 68
47 43 42 44 44 46 52 49 52 54 57 60 57 62 57 50 42 41 37 36 37 44 46 48 46 47 49 48 48 49 48 49 50 51 51 54 56 56 55 55 57 61 67 73
44 43 45 47 48 49 54 53 53 55 58 64 60 63 64 60 54 46 40 41 40 45 52 54 52 53 50 49 50 50 49 48 50 51 52 55 57 55 56 56 59 64 72 77
44 47 49 49 49 50 53 55 56 59 60 68 61 63 70 62 59 49 44 43 45 48 52 58 58 52 51 51 51 50 51 50 49 51 54 57 56 57 56 59 62 68 76 82
47 48 51 51 50 51 52 53 58 64 64 70 68 70 61 62 59 49 44 49 45 50 56 57 58 50 47 50 50 49 49 50 50 53 56 56 58 57 60 63 66 74 79 84
50 53 49 52 52 55 56 54 54 60 65 74 74 68 61 59 55 51 48 48 49 48 53 58 60 56 53 54 52 50 48 48 51 54 56 57 59 60 64 68 72 79 83 85
52 56 55 54 55 55 59 61 59 59 66 73 68 63 65 61 58 53 52 47 46 52 56 59 62 57 53 57 55 51 50 52 55 56 57 59 61 64 66 72 77 83 87 86
56 59 60 61 63 65 62 62 63 61 65 68 69 71 74 70 63 56 57 51 48 54 57 61 61 56 55 54 51 51 52 55 56 56 58 61 62 67 71 76 82 87 88 87
60 58 57 58 56 55 58 60 60 61 66 68 70 71 69 61 56 55 57 54 48 55 59 64 60 55 53 51 50 51 54 54 56 57 59 62 65 68 73 79 85 88 88 87
62 63 63 65 66 66 66 65 65 69 68 69 74 72 56 57 55 53 52 52 54 59 64 64 57 54 51 50 53 55 54 54 57 58 60 63 67 72 77 85 89 88 88 86
61 68 69 65 69 70 67 64 65 67 65 72 74 71 57 60 53 47 54 55 57 62 65 62 54 53 51 53 56 54 54 57 57 59 63 66 70 77 83 85 86 87 86 84
71 71 70 69 66 69 70 68 64 61 70 74 77 76 63 56 54 51 56 54 57 63 65 60 56 53 53 53 53 52 55 55 57 62 65 70 74 80 81 84 85 85 85 84
71 78 75 73 73 72 70 68 66 69 69 78 76 77 66 55 56 52 61 55 59 64 61 58 57 54 51 53 52 55 55 57 60 65 71 72 78 78 81 83 83 84 86 85
70 74 74 78 75 73 76 75 71 66 68 73 71 77 64 58 66 61 58 56 63 63 61 62 56 53 54 54 54 55 58 61 65 68 72 74 76 76 78 79 81 83 85 85
76 78 77 81 76 77 76 78 66 67 75 71 81 77 67 68 68 62 62 65 61 60 59 58 54 54 54 51 52 56 61 64 68 71 71 72 73 76 74 76 81 82 84 87
68 77 78 79 74 82 82 66 69 73 71 70 72 67 67 67 67 72 71 67 63 58 56 53 50 50 48 48 54 59 62 68 71 69 69 69 69 71 74 76 77 80 82 86
73 69 75 73 72 73 71 62 59 65 76 69 69 67 63 66 69 60 59 51 54 55 56 54 50 48 52 59 60 61 65 68 69 66 64 67 71 72 73 74 76 79 82 85
88 82 71 65 70 74 65 56 56 61 78 69 64 67 66 68 68 60 63 64 65 63 64 59 56 57 61 65 64 63 68 64 64 67 67 69 70 71 71 74 78 81 81 83
93 93 88 88 83 87 70 62 66 66 81 58 66 69 66 64 63 62 60 64 59 60 60 57 54 57 61 63 61 62 62 64 64 65 66 69 70 71 72 74 77 80 81 79
85 87 90 86 94 103 79 83 84 73 62 54 62 63 63 60 54 47 50 51 48 50 53 56 60 63 65 60 60 58 59 63 65 67 70 71 70 71 73 73 75 79 80 75
93 91 90 93 98 91 85 83 80 77 68 69 59 45 43 48 54 52 49 49 50 52 60 62 64 63 63 58 61 64 63 63 65 68 66 68 69 70 70 72 74 75 74 73
87 78 82 88 95 90 88 87 81 74 65 57 47 59 56 59 50 53 51 56 55 59 59 58 63 60 61 58 60 59 61 62 62 67 68 68 68 70 66 67 71 70 72 74
80 57 75 67 82 88 89 85 82 78 73 72 64 62 70 73 64 60 53 56 53 55 61 61 61 54 55 54 58 60 59 57 60 64 66 65 63 59 57 61 65 67 73 76
101 104 105 108 101 106 98 88 87 86 81 75 72 66 71 66 59 60 60 56 59 59 63 65 62 60 59 57 57 58 58 57 58 62 62 59 53 49 50 56 63 68 70 74
Wind_Direction
279 279 286 279 285 288 290 292 296 298 299 299 301 302 307 307 303 300 303 303 306 307 306 307 307 305 305 299 297 293 288 288 288 288 288 286 287 293 298 297 300 302 301 299
278 279 279 282 285 288 290 293 297 296 298 298 300 301 302 307 309 301 297 299 307 302 301 303 303 302 306 305 299 294 293 291 291 288 287 286 290 296 296 297 300 302 298 295
274 280 280 283 284 288 289 293 294 296 296 297 299 300 299 302 304 300 295 294 303 302 301 299 300 300 299 298 297 293 290 289 288 286 287 288 293 295 296 297 298 300 297 296
274 277 279 279 283 287 287 291 292 295 295 297 299 300 299 303 307 307 302 298 298 296 294 297 297 300 297 299 296 295 292 287 284 285 286 291 295 295 295 297 298 298 298 297
273 273 274 277 282 283 286 289 290 291 292 294 296 297 299 305 309 312 305 304 304 298 297 299 298 303 306 301 297 293 293 286 282 284 289 295 295 295 294 296 298 299 300 301
274 276 276 279 281 283 285 287 289 290 291 289 298 296 295 306 308 308 312 307 306 299 299 299 299 300 303 299 300 295 291 287 286 289 295 296 295 294 295 297 298 301 303 304
274 273 275 277 279 280 283 286 287 287 290 291 296 295 298 302 302 305 309 304 308 299 298 297 297 298 303 304 303 298 291 287 288 294 296 297 296 294 297 298 298 302 305 305
276 275 276 278 279 281 281 281 282 287 290 293 293 293 299 296 298 306 308 312 309 301 297 295 297 302 301 307 305 300 292 288 293 297 297 298 297 294 296 298 299 303 304 304
279 278 280 279 278 277 280 281 284 283 286 288 289 294 295 293 299 309 310 312 311 302 298 297 297 305 304 302 300 294 293 295 298 298 297 297 295 294 298 300 302 302 303 303
274 272 271 273 275 277 280 282 282 284 285 285 290 294 291 296 308 310 307 311 308 298 296 294 296 306 302 301 297 296 296 297 297 295 296 296 294 297 300 301 301 302 301 300
280 280 279 275 273 277 278 275 279 280 279 285 291 288 294 306 312 305 301 311 302 295 294 293 299 302 299 297 294 295 295 295 294 294 295 295 296 298 299 298 298 299 299 300
276 278 276 276 278 275 273 278 281 282 288 286 282 285 302 308 303 304 300 305 300 292 291 293 296 296 296 293 293 295 294 293 293 295 296 296 297 297 298 300 301 301 302 301
271 269 270 275 277 280 281 278 276 281 282 281 278 293 311 307 314 303 297 302 293 288 288 290 293 293 291 291 293 294 292 293 294 296 296 297 298 299 300 301 301 303 303 303
269 273 277 279 279 278 279 279 279 277 279 287 291 303 300 309 311 299 293 295 288 285 285 290 292 288 289 292 293 291 291 293 296 297 296 296 298 299 301 302 302 304 305 306
266 274 278 276 274 282 281 279 282 278 283 288 297 298 305 313 306 294 286 294 286 286 288 290 288 289 293 293 290 291 293 295 295 297 297 297 300 300 303 302 304 307 307 308
270 272 272 275 279 276 276 279 280 282 286 285 291 297 310 304 303 298 291 285 285 290 292 289 288 291 291 289 289 290 293 294 293 294 295 298 300 301 303 305 308 309 309 309
271 274 275 275 278 272 269 283 282 281 283 289 289 295 300 297 298 295 291 285 285 287 283 282 284 284 283 285 286 288 291 292 293 294 296 298 299 301 304 307 310 311 310 310
275 273 272 274 271 266 279 277 279 281 284 283 289 296 298 297 298 290 289 288 284 282 282 280 278 278 281 286 289 291 291 292 292 295 297 299 301 303 305 307 309 310 310 309
277 281 277 274 272 274 273 279 281 279 278 283 292 293 294 294 290 295 294 284 280 277 276 277 276 280 287 292 292 292 292 292 294 296 298 299 300 305 305 305 306 307 309 310
273 276 270 270 272 275 277 281 285 283 279 291 292 291 289 287 286 291 285 281 280 276 277 277 276 287 291 292 292 293 293 291 293 296 298 300 303 303 303 305 307 308 309 310
275 276 272 272 270 275 278 288 288 278 295 297 290 286 285 285 285 285 282 281 277 274 276 281 289 296 293 291 292 294 292 289 295 297 298 301 301 302 303 304 308 309 309 311
268 271 275 274 271 274 282 284 284 286 291 297 303 293 282 281 282 283 280 277 273 273 283 289 289 290 288 286 289 292 294 295 295 296 297 298 299 300 302 304 306 307 309 314
268 270 275 276 278 278 281 285 290 292 290 287 291 275 284 286 289 285 279 266 279 285 289 290 287 288 286 286 290 292 299 301 299 298 297 298 298 299 299 302 304 306 309 314
271 277 273 275 272 277 281 283 287 291 287 287 280 273 281 289 286 285 282 274 280 288 289 292 286 288 286 289 292 295 298 303 302 299 297 297 299 299 298 299 302 308 312 316
271 268 276 270 271 280 281 282 285 285 280 281 282 271 272 276 280 280 278 275 281 279 281 285 283 285 282 287 293 297 300 302 299 297 296 296 295 295 298 301 305 312 315 319
259 263 265 265 270 275 279 279 280 280 280 279 277 277 275 271 271 275 276 277 276 279 282 286 282 282 285 285 291 295 299 294 294 294 293 292 291 296 303 309 314 317 322 327
Height
5833 5831 5834 5828 5827 5826 5824 5821 5819 5819 5813 5804 5806 5804 5807 5809 5805 5802 5798 5792 5787 5783 5779 5774 5771 5768 5765 5762 5759 5755 5752 5749 5746 5743 5739 5736 5731 5727 5722 5717 5712 5707 5703 5699
5824 5824 5823 5820 5818 5816 5814 5811 5811 5807 5803 5796 5793 5792 5797 5796 5797 5792 5789 5784 5779 5774 5769 5765 5760 5757 5754 5751 5748 5744 5741 5738 5734 5731 5727 5723 5718 5713 5708 5702 5696 5691 5685 5680
5812 5816 5813 5811 5809 5807 5804 5802 5798 5794 5791 5788 5780 5774 5781 5790 5787 5785 5780 5775 5771 5765 5760 5754 5750 5747 5743 5741 5737 5733 5729 5727 5722 5718 5714 5710 5706 5700 5693 5686 5679 5674 5668 5661
5802 5805 5803 5801 5800 5797 5791 5792 5787 5783 5777 5771 5772 5751 5759 5769 5776 5772 5768 5766 5763 5756 5750 5746 5741 5737 5733 5729 5725 5720 5716 5713 5709 5705 5701 5697 5692 5686 5678 5673 5665 5658 5651 5644
5794 5795 5793 5791 5791 5787 5782 5780 5777 5772 5767 5758 5761 5753 5743 5751 5757 5762 5756 5752 5749 5743 5735 5730 5728 5724 5720 5716 5711 5706 5703 5697 5694 5690 5686 5681 5675 5670 5663 5657 5651 5644 5635 5626
5785 5782 5782 5782 5779 5776 5773 5768 5764 5759 5756 5742 5751 5745 5728 5740 5740 5743 5742 5738 5736 5729 5722 5716 5712 5710 5706 5701 5695 5691 5687 5682 5678 5674 5670 5665 5660 5655 5649 5642 5636 5629 5618 5608
5773 5772 5769 5768 5767 5764 5762 5758 5750 5743 5741 5733 5733 5726 5726 5728 5726 5730 5729 5724 5722 5715 5708 5700 5694 5696 5694 5687 5682 5677 5672 5668 5665 5662 5657 5652 5646 5639 5634 5627 5620 5611 5601 5590
5756 5756 5758 5755 5755 5751 5747 5746 5743 5734 5728 5720 5720 5710 5713 5711 5712 5715 5714 5712 5707 5700 5694 5687 5681 5680 5678 5672 5667 5662 5658 5655 5652 5648 5642 5636 5630 5624 5618 5611 5602 5592 5583 5574
5742 5740 5741 5740 5739 5737 5733 5730 5729 5721 5719 5713 5707 5703 5697 5697 5701 5704 5699 5696 5693 5685 5678 5672 5666 5667 5663 5658 5653 5648 5645 5641 5637 5632 5626 5619 5613 5608 5602 5594 5584 5573 5562 5553
5726 5722 5723 5722 5721 5719 5720 5719 5712 5711 5705 5695 5692 5688 5679 5685 5692 5690 5682 5681 5679 5670 5664 5657 5652 5651 5646 5643 5638 5634 5631 5626 5621 5615 5610 5604 5598 5593 5585 5576 5565 5553 5540 5530
5704 5704 5708 5707 5706 5708 5704 5699 5699 5696 5689 5685 5684 5666 5667 5678 5678 5675 5670 5669 5663 5653 5648 5639 5638 5635 5631 5628 5624 5620 5616 5610 5605 5599 5594 5588 5581 5573 5563 5553 5542 5530 5520 5510
5688 5683 5684 5689 5687 5684 5681 5684 5685 5677 5676 5668 5660 5641 5675 5671 5667 5666 5658 5655 5646 5637 5630 5625 5625 5622 5618 5614 5609 5605 5601 5595 5590 5584 5578 5571 5563 5554 5545 5535 5524 5513 5502 5491
5672 5661 5661 5670 5669 5665 5667 5669 5668 5663 5659 5643 5642 5636 5655 5652 5653 5651 5642 5638 5630 5624 5616 5611 5610 5606 5602 5598 5594 5590 5585 5580 5575 5569 5562 5555 5547 5538 5528 5518 5506 5494 5484 5473
5650 5641 5642 5646 5657 5648 5646 5648 5653 5650 5636 5628 5621 5621 5639 5646 5639 5631 5623 5621 5616 5608 5602 5598 5594 5590 5587 5583 5579 5575 5570 5564 5558 5552 5545 5538 5530 5520 5511 5501 5489 5476 5465 5455
5630 5623 5627 5627 5635 5629 5626 5631 5637 5630 5630 5606 5612 5601 5618 5626 5614 5614 5601 5600 5595 5589 5587 5583 5577 5573 5570 5566 5562 5558 5553 5547 5541 5535 5530 5521 5514 5505 5495 5484 5472 5459 5447 5438
5612 5605 5605 5601 5614 5610 5600 5617 5621 5618 5615 5604 5599 5588 5610 5603 5598 5594 5586 5579 5574 5571 5569 5562 5558 5555 5552 5550 5546 5541 5537 5531 5525 5519 5512 5505 5497 5487 5476 5466 5455 5443 5431 5419
5592 5589 5589 5578 5596 5581 5569 5602 5606 5602 5595 5594 5579 5585 5591 5584 5579 5573 5563 5562 5559 5556 5551 5546 5542 5538 5535 5534 5530 5526 5521 5515 5509 5502 5494 5486 5477 5468 5459 5449 5440 5428 5415 5403
5577 5574 5569 5560 5567 5546 5566 5586 5585 5579 5577 5576 5570 5572 5572 5566 5561 5550 5548 5544 5538 5535 5533 5530 5525 5523 5521 5518 5514 5509 5502 5496 5490 5482 5475 5469 5460 5451 5442 5433 5422 5410 5398 5386
5561 5557 5546 5540 5538 5539 5541 5574 5566 5563 5544 5561 5557 5555 5553 5550 5537 5545 5532 5524 5521 5519 5515 5512 5510 5507 5504 5500 5495 5490 5484 5478 5471 5464 5458 5451 5443 5433 5425 5415 5403 5393 5382 5370
5544 5536 5528 5524 5513 5511 5537 5555 5550 5541 5512 5559 5544 5533 5530 5524 5519 5532 5516 5509 5504 5502 5499 5496 5494 5491 5487 5483 5478 5472 5466 5460 5453 5447 5441 5433 5425 5416 5406 5398 5389 5379 5368 5356
5521 5509 5504 5506 5492 5486 5518 5543 5526 5516 5525 5528 5521 5516 5510 5502 5499 5500 5502 5492 5488 5487 5486 5483 5479 5476 5471 5466 5461 5455 5450 5444 5437 5431 5424 5415 5407 5398 5390 5381 5373 5367 5356 5343
5497 5491 5484 5481 5473 5467 5516 5503 5505 5512 5510 5513 5508 5499 5490 5487 5481 5477 5477 5477 5475 5475 5473 5469 5464 5459 5454 5450 5445 5440 5435 5429 5421 5414 5406 5398 5390 5382 5373 5365 5355 5349 5344 5330
5460 5467 5470 5462 5449 5465 5475 5477 5483 5490 5492 5498 5488 5483 5472 5467 5465 5463 5460 5460 5459 5459 5456 5452 5447 5442 5437 5433 5429 5423 5418 5411 5405 5398 5390 5382 5374 5367 5357 5350 5341 5332 5328 5318
5432 5450 5435 5440 5438 5448 5456 5457 5464 5469 5469 5472 5467 5464 5461 5454 5449 5446 5444 5443 5441 5440 5437 5433 5429 5426 5421 5417 5412 5407 5401 5395 5389 5383 5375 5366 5359 5352 5343 5334 5325 5319 5310 5303
5413 5418 5415 5408 5414 5431 5434 5440 5444 5444 5443 5444 5446 5444 5440 5436 5432 5429 5428 5427 5425 5422 5419 5416 5411 5408 5403 5399 5394 5389 5384 5378 5372 5366 5359 5351 5344 5336 5327 5319 5312 5306 5294 5286
5395 5395 5394 5385 5400 5399 5400 5415 5419 5416 5417 5420 5420 5421 5419 5412 5412 5411 5411 5410 5407 5404 5402 5398 5393 5389 5386 5381 5377 5372 5367 5361 5355 5349 5342 5337 5331 5325 5315 5306 5296 5289 5279 5266